When you browse on this site, cookies collect data to enhance your experience and personalize the content and advertising you see.
Visit our Privacy Policy to learn more. By continuing to use the site, you agree to this use of cookies and data.

Meteo pe oră la Dziektarzewo

Astăzi, 19 Septembrie, Sâmbătă

Timp Temperatura Precipitaţii Vânt Presiune Umiditate
00:00 +10°C° 0 mm 1 m/s 761 mmHg 59%
01:00 +10°C° 0 mm 1 m/s 761 mmHg 60%
02:00 +10°C° 0 mm 1 m/s 760 mmHg 61%
03:00 +9°C° 0 mm 1 m/s 760 mmHg 62%
04:00 +9°C° 0 mm 1 m/s 760 mmHg 63%
05:00 +10°C° 0 mm 1 m/s 760 mmHg 62%
06:00 +10°C° 0 mm 1 m/s 760 mmHg 62%
07:00 +10°C° 0 mm 2 m/s 760 mmHg 60%
08:00 +13°C° 0 mm 2 m/s 760 mmHg 55%
09:00 +14°C° 0 mm 2 m/s 760 mmHg 51%
10:00 +16°C° 0 mm 2 m/s 760 mmHg 46%
11:00 +17°C° 0 mm 2 m/s 760 mmHg 43%
12:00 +18°C° 0 mm 2 m/s 759 mmHg 39%
13:00 +19°C° 0 mm 2 m/s 759 mmHg 36%
14:00 +19°C° 0 mm 2 m/s 759 mmHg 38%
15:00 +20°C° 0 mm 1 m/s 758 mmHg 40%
16:00 +20°C° 0 mm 1 m/s 758 mmHg 42%
17:00 +18°C° 0 mm 1 m/s 758 mmHg 45%
18:00 +15°C° 0 mm 1 m/s 758 mmHg 47%
19:00 +13°C° 0 mm 1 m/s 758 mmHg 50%
20:00 +13°C° 0 mm 1 m/s 758 mmHg 53%
21:00 +12°C° 0 mm 1 m/s 758 mmHg 56%
22:00 +12°C° 0 mm 1 m/s 758 mmHg 59%
23:00 +11°C° 0 mm 1 m/s 758 mmHg 63%

Mâine, 20 Septembrie, Duminică

Timp Temperatura Precipitaţii Vânt Presiune Umiditate
00:00 +11°C° 0 mm 1 m/s 758 mmHg 68%
01:00 +11°C° 0 mm 1 m/s 758 mmHg 72%
02:00 +11°C° 0 mm 1 m/s 758 mmHg 74%
03:00 +10°C° 0 mm 1 m/s 758 mmHg 75%
04:00 +10°C° 0 mm 1 m/s 758 mmHg 77%
05:00 +10°C° 0 mm 2 m/s 758 mmHg 74%
06:00 +10°C° 0 mm 2 m/s 758 mmHg 71%
07:00 +12°C° 0 mm 2 m/s 758 mmHg 68%
08:00 +14°C° 0 mm 2 m/s 758 mmHg 62%
09:00 +15°C° 0 mm 2 m/s 758 mmHg 55%
10:00 +17°C° 0 mm 2 m/s 758 mmHg 49%
11:00 +18°C° 0 mm 3 m/s 758 mmHg 46%
12:00 +19°C° 0 mm 3 m/s 757 mmHg 44%
13:00 +20°C° 0 mm 3 m/s 757 mmHg 41%
14:00 +20°C° 0 mm 3 m/s 757 mmHg 43%
15:00 +20°C° 0 mm 2 m/s 756 mmHg 45%
16:00 +19°C° 0 mm 2 m/s 756 mmHg 48%
17:00 +18°C° 0 mm 2 m/s 756 mmHg 51%
18:00 +16°C° 0 mm 2 m/s 756 mmHg 55%
19:00 +14°C° 0 mm 2 m/s 756 mmHg 59%
20:00 +13°C° 0 mm 2 m/s 756 mmHg 60%
21:00 +13°C° 0 mm 2 m/s 756 mmHg 61%
22:00 +12°C° 0 mm 2 m/s 756 mmHg 62%
23:00 +12°C° 0 mm 2 m/s 756 mmHg 64%

Poimâine, 21 Septembrie, Luni

Timp Temperatura Precipitaţii Vânt Presiune Umiditate
00:00 +10°C° 0 mm 2 m/s 756 mmHg 66%
01:00 +10°C° 0 mm 2 m/s 756 mmHg 67%
02:00 +9°C° 0 mm 2 m/s 756 mmHg 70%
03:00 +9°C° 0 mm 2 m/s 756 mmHg 72%
04:00 +9°C° 0 mm 2 m/s 755 mmHg 75%
05:00 +10°C° 0 mm 2 m/s 755 mmHg 74%
06:00 +10°C° 0 mm 2 m/s 755 mmHg 74%
07:00 +12°C° 0 mm 2 m/s 755 mmHg 74%
08:00 +14°C° 0 mm 2 m/s 755 mmHg 67%
09:00 +17°C° 0 mm 2 m/s 755 mmHg 60%
10:00 +19°C° 0 mm 2 m/s 755 mmHg 53%
11:00 +20°C° 0 mm 2 m/s 755 mmHg 50%
12:00 +21°C° 0 mm 2 m/s 755 mmHg 46%
13:00 +24°C° 0 mm 2 m/s 754 mmHg 43%
14:00 +23°C° 0 mm 2 m/s 754 mmHg 45%
15:00 +23°C° 0 mm 1 m/s 754 mmHg 46%
16:00 +23°C° 0 mm 1 m/s 754 mmHg 48%
17:00 +22°C° 0 mm 1 m/s 753 mmHg 52%
18:00 +20°C° 0 mm 1 m/s 753 mmHg 57%
19:00 +18°C° 0 mm 1 m/s 753 mmHg 61%
20:00 +16°C° 0 mm 1 m/s 753 mmHg 63%
21:00 +16°C° 0 mm 1 m/s 753 mmHg 64%
22:00 +15°C° 0 mm 1 m/s 753 mmHg 66%
23:00 +15°C° 0 mm 1 m/s 753 mmHg 66%

22 Septembrie, Marţi

Timp Temperatura Precipitaţii Vânt Presiune Umiditate
00:00 +15°C° 0 mm 2 m/s 753 mmHg 67%
01:00 +14°C° 0 mm 2 m/s 753 mmHg 67%
02:00 +14°C° 0 mm 2 m/s 752 mmHg 68%
03:00 +14°C° 0 mm 2 m/s 752 mmHg 69%
04:00 +14°C° 0 mm 2 m/s 752 mmHg 70%
05:00 +15°C° 0 mm 2 m/s 752 mmHg 69%
06:00 +15°C° 0 mm 2 m/s 752 mmHg 68%
07:00 +16°C° 0 mm 2 m/s 752 mmHg 68%
08:00 +18°C° 0 mm 3 m/s 752 mmHg 61%
09:00 +21°C° 0 mm 3 m/s 752 mmHg 55%
10:00 +23°C° 0 mm 4 m/s 752 mmHg 49%
11:00 +25°C° 0 mm 4 m/s 751 mmHg 45%
12:00 +27°C° 0 mm 5 m/s 751 mmHg 40%
13:00 +28°C° 0 mm 5 m/s 751 mmHg 36%
14:00 +27°C° 0 mm 4 m/s 750 mmHg 39%
15:00 +27°C° 0 mm 4 m/s 750 mmHg 41%
16:00 +27°C° 0 mm 3 m/s 749 mmHg 44%
17:00 +25°C° 0 mm 3 m/s 749 mmHg 48%
18:00 +22°C° 0 mm 3 m/s 749 mmHg 52%
19:00 +20°C° 0 mm 4 m/s 749 mmHg 56%
20:00 +19°C° 0 mm 4 m/s 749 mmHg 58%
21:00 +19°C° 0 mm 3 m/s 749 mmHg 61%
22:00 +18°C° 0 mm 3 m/s 748 mmHg 63%
23:00 +18°C° 0 mm 3 m/s 748 mmHg 64%

23 Septembrie, Miercuri

Timp Temperatura Precipitaţii Vânt Presiune Umiditate
00:00 +17°C° 0 mm 3 m/s 748 mmHg 64%
01:00 +17°C° 0 mm 3 m/s 748 mmHg 65%
02:00 +17°C° 0 mm 3 m/s 747 mmHg 65%
03:00 +16°C° 0 mm 3 m/s 747 mmHg 65%
04:00 +16°C° 0 mm 3 m/s 747 mmHg 65%
05:00 +17°C° 0 mm 3 m/s 747 mmHg 65%
06:00 +17°C° 0 mm 3 m/s 747 mmHg 64%
07:00 +18°C° 0 mm 3 m/s 747 mmHg 64%
08:00 +20°C° 0 mm 3 m/s 746 mmHg 58%
09:00 +22°C° 0 mm 4 m/s 746 mmHg 52%
10:00 +25°C° 0 mm 4 m/s 746 mmHg 46%
11:00 +26°C° 0 mm 5 m/s 746 mmHg 44%
12:00 +28°C° 0 mm 5 m/s 745 mmHg 42%
13:00 +29°C° 0 mm 6 m/s 745 mmHg 40%
14:00 +28°C° 0 mm 5 m/s 745 mmHg 43%
15:00 +28°C° 0 mm 4 m/s 744 mmHg 46%
16:00 +27°C° 0 mm 3 m/s 744 mmHg 49%
17:00 +25°C° 0 mm 3 m/s 744 mmHg 54%
18:00 +23°C° 0 mm 2 m/s 744 mmHg 59%
19:00 +20°C° 0 mm 2 m/s 744 mmHg 63%
20:00 +20°C° 0 mm 2 m/s 744 mmHg 65%
21:00 +19°C° 0 mm 2 m/s 744 mmHg 67%
22:00 +20°C° 0 mm 1 m/s 744 mmHg 69%
23:00 +19°C° 0 mm 2 m/s 744 mmHg 71%

24 Septembrie, Joi

Timp Temperatura Precipitaţii Vânt Presiune Umiditate
00:00 +18°C° 0 mm 2 m/s 744 mmHg 73%
01:00 +18°C° 0 mm 2 m/s 744 mmHg 75%
02:00 +18°C° 0.1 mm 2 m/s 744 mmHg 77%
03:00 +17°C° 0.1 mm 2 m/s 744 mmHg 80%
04:00 +18°C° 0.1 mm 1 m/s 744 mmHg 82%
05:00 +18°C° 0.2 mm 1 m/s 744 mmHg 83%
06:00 +17°C° 0.2 mm 2 m/s 744 mmHg 83%
07:00 +18°C° 0.2 mm 2 m/s 745 mmHg 83%
08:00 +19°C° 0 mm 2 m/s 745 mmHg 76%
09:00 +21°C° 0 mm 2 m/s 745 mmHg 69%
10:00 +24°C° 0 mm 3 m/s 745 mmHg 62%
11:00 +24°C° 0 mm 3 m/s 745 mmHg 57%
12:00 +25°C° 0 mm 3 m/s 745 mmHg 52%
13:00 +26°C° 0 mm 3 m/s 745 mmHg 47%
14:00 +26°C° 0 mm 2 m/s 745 mmHg 48%
15:00 +26°C° 0 mm 2 m/s 745 mmHg 50%
16:00 +26°C° 0 mm 2 m/s 745 mmHg 51%
17:00 +24°C° 0 mm 1 m/s 745 mmHg 56%
18:00 +22°C° 0 mm 1 m/s 744 mmHg 60%
19:00 +20°C° 0 mm 1 m/s 744 mmHg 65%
20:00 +20°C° 0 mm 1 m/s 744 mmHg 68%
21:00 +18°C° 0 mm 2 m/s 744 mmHg 71%
22:00 +18°C° 0 mm 3 m/s 744 mmHg 74%
23:00 +17°C° 0 mm 3 m/s 744 mmHg 76%
Arată mai mult